White Plains, CT

9:51 PM EST on November 21, 2017 (GMT -0500)
Westchester County

Weather History for KHPN - December, 2014

Change the Weather History Date:

Wednesday, December 10, 2014

  Actual Average Record
Temperature  
Mean Temperature 34 °F -  
Max Temperature 37 °F 42 °F 57 °F (2008)
Min Temperature 32 °F 29 °F 9 °F (1982)
Degree Days  
Heating Degree Days 30    
Moisture  
Dew Point 31 °F    
Average Humidity 86    
Maximum Humidity 93    
Minimum Humidity 73    
Precipitation  
Precipitation 0.05 in - - ()
Sea Level Pressure  
Sea Level Pressure 29.58 in    
Wind  
Wind Speed 17 mph (NW)    
Max Wind Speed 22 mph    
Max Gust Speed 30 mph    
Visibility 5 miles    
Events Rain , Snow    
Averages and records for this station are not official NWS values.
T = Trace of Precipitation, MM = Missing Value Source: NWS Daily Summary

Daily Weather History Graph

Daily Weather History Graph

Search for Another Location

Airport or City:

Trip Planner

Search our weather history database for the weather conditions in past years. The results will help you decide how hot, cold, wet, or windy it might be!

Date:

Astronomy

Dec. 10, 2014 Rise Set
Actual Time 7:08 AM EST 4:26 PM EST
Civil Twilight 6:37 AM EST 4:57 PM EST
Nautical Twilight 6:03 AM EST 5:31 PM EST
Astronomical Twilight 5:30 AM EST 6:05 PM EST
Moon 8:40 PM EST (12/10) 9:56 AM EST (12/10)
Length of Visible Light 10h 19m
Length of Day
9h 17m
Waning Gibbous, 83% of the Moon is Illuminated
Dec 10
Waning Gibbous
Dec 14
Last Quarter
Dec 21
New
Dec 28
First Quarter
Jan 4
Full

Hourly Weather History & Observations

Time (EST) Temp. Windchill Dew Point Humidity Pressure Visibility Wind Dir Wind Speed Gust Speed Precip Events Conditions
12:56 AM 37.9 °F 29.2 °F 34.0 °F 86% 29.66 in 5.0 mi NNW 15.0 mph 23.0 mph 0.00 in   Light Drizzle
1:56 AM 37.9 °F 27.3 °F 34.0 °F 86% 29.64 in 6.0 mi NW 21.9 mph 27.6 mph 0.00 in   Mostly Cloudy
2:56 AM 37.9 °F 28.2 °F 34.0 °F 86% 29.64 in 10.0 mi NNW 18.4 mph 28.8 mph N/A   Mostly Cloudy
3:56 AM 37.9 °F 28.2 °F 34.0 °F 86% 29.60 in 7.0 mi NNW 18.4 mph 24.2 mph N/A   Overcast
4:56 AM 37.9 °F 28.9 °F 34.0 °F 86% 29.62 in 8.0 mi NNW 16.1 mph 26.5 mph 0.00 in   Light Drizzle
5:56 AM 37.9 °F 29.2 °F 34.0 °F 86% 29.62 in 5.0 mi NNW 15.0 mph 26.5 mph 0.00 in   Light Drizzle
6:56 AM 37.9 °F 27.9 °F 33.1 °F 83% 29.60 in 9.0 mi NNW 19.6 mph 29.9 mph 0.00 in   Light Drizzle
7:56 AM 37.0 °F 27.7 °F 33.1 °F 86% 29.61 in 2.0 mi NNW 16.1 mph - 0.00 in   Overcast
8:20 AM 37.4 °F 28.5 °F 33.8 °F 87% 29.60 in 1.5 mi NW 15.0 mph - 0.00 in   Overcast
8:56 AM 36.0 °F 26.3 °F 34.0 °F 93% 29.61 in 1.5 mi NW 16.1 mph 24.2 mph 0.00 in   Light Drizzle
9:56 AM 36.0 °F 26.7 °F 33.1 °F 89% 29.62 in 1.5 mi NW 15.0 mph - 0.01 in   Light Drizzle
10:20 AM 35.6 °F 26.6 °F 33.8 °F 93% 29.60 in 2.5 mi NW 13.8 mph - 0.00 in   Light Drizzle
10:56 AM 36.0 °F 27.5 °F 34.0 °F 93% 29.60 in 2.5 mi NW 12.7 mph - 0.00 in   Light Drizzle
11:56 AM 36.0 °F 26.3 °F 34.0 °F 93% 29.59 in 2.0 mi NW 16.1 mph - 0.00 in   Light Drizzle
12:56 PM 34.0 °F 24.2 °F 32.0 °F 92% 29.57 in 1.5 mi WNW 15.0 mph - 0.01 in Rain , Snow Light Snow
1:56 PM 34.0 °F 24.6 °F 30.9 °F 89% 29.55 in 1.5 mi WNW 13.8 mph - 0.02 in Snow Light Snow
2:34 PM 33.8 °F 22.5 °F 30.2 °F 87% 29.53 in 0.8 mi WNW 19.6 mph - 0.00 in Snow Light Snow
2:56 PM 33.1 °F 22.6 °F 30.9 °F 92% 29.55 in 0.8 mi WNW 16.1 mph - 0.01 in Snow Light Snow
3:23 PM 33.8 °F 23.2 °F 30.2 °F 87% 29.53 in 1.0 mi WNW 17.3 mph 27.6 mph 0.00 in Snow Light Snow
3:56 PM 33.1 °F 22.6 °F 30.0 °F 89% 29.55 in 1.5 mi WNW 16.1 mph 26.5 mph 0.00 in Snow Light Snow
4:25 PM 33.8 °F 22.5 °F 30.2 °F 87% 29.54 in 1.5 mi WNW 19.6 mph - 0.00 in Snow Light Snow
4:56 PM 33.1 °F 23.0 °F 30.0 °F 89% 29.56 in 2.0 mi WNW 15.0 mph - 0.00 in Snow Light Snow
5:52 PM 32.0 °F 20.1 °F 28.4 °F 87% 29.54 in 6.0 mi WNW 19.6 mph 27.6 mph 0.00 in Snow Light Snow
5:56 PM 32.0 °F 20.5 °F 28.0 °F 85% 29.56 in 6.0 mi WNW 18.4 mph 27.6 mph 0.00 in Snow Light Snow
6:56 PM 32.0 °F 20.5 °F 27.0 °F 82% 29.56 in 9.0 mi WNW 18.4 mph - 0.00 in   Overcast
7:56 PM 32.0 °F 21.2 °F 27.0 °F 82% 29.57 in 10.0 mi WNW 16.1 mph 20.7 mph N/A   Scattered Clouds
8:56 PM 32.0 °F 22.1 °F 26.1 °F 79% 29.56 in 7.0 mi WNW 13.8 mph - N/A   Overcast
9:56 PM 32.0 °F 21.6 °F 25.0 °F 75% 29.57 in 10.0 mi WNW 15.0 mph 23.0 mph N/A   Overcast
10:56 PM 32.0 °F 21.6 °F 24.1 °F 73% 29.57 in 10.0 mi WNW 15.0 mph - N/A   Overcast
11:56 PM 32.0 °F 21.6 °F 24.1 °F 73% 29.57 in 10.0 mi WNW 15.0 mph 20.7 mph N/A   Mostly Cloudy